[[{"header":{"parameterUnit":"m.s-1","parameterCategory":1,"la1":30.2991,"la2":30.254,"lo1":-89.0895,"lo2":-89.0444,"dy":0.0017,"dx":0.0017,"nx":28,"ny":28,"refTime":"2024-07-30T09:00:00:Z","depth":0,"parameterNumber":2,"parameterNumberName":"U-component_of_WINDS"},"data":[0,0,0,0,0,0,0,0,0,0,0,0,0,0,0,0,0,0,0,0,0,0,0,0,0,0,0,0,0,0,0,0,0,0,0,0,0,0,0,0,0,0,0,0,0,0,0,0,0,0,0,0,0,0,0,0,0,0,1.2929,1.293,0,1.304,1.3042,1.3043,1.3069,1.3068,1.3067,1.3067,1.3181,1.3184,1.3188,0,0,0,0,0,0,0,0,0,0,0,0,0,1.2737,1.2741,1.2929,1.293,1.2932,1.304,1.3042,1.3043,1.3069,1.3068,1.3067,1.3066,1.318,1.3184,1.3188,0,0,0,0,0,0,0,0,0,0,0,0,0,1.2832,1.2742,1.2929,1.2958,1.2961,1.304,1.3042,1.3044,1.3069,1.3068,1.3067,1.3066,1.3178,1.3184,1.3189,1.3247,0,0,1.3206,1.3209,0,0,0,0,0,0,0,0,1.2826,1.2839,1.2952,1.2956,1.296,1.304,1.3016,1.3112,1.307,1.3028,1.3067,1.3065,1.3135,1.3144,1.3167,1.3252,1.3257,1.3207,1.321,1.3213,1.3214,0,0,0,0,0,0,0,1.282,1.2834,1.2973,1.2954,1.2959,1.2965,1.2977,1.3034,1.3087,1.3032,1.3034,1.3047,1.3137,1.3162,1.317,1.3258,1.3207,1.3212,1.3215,1.3217,1.3394,1.3395,0,0,0,0,0,0,1.2808,1.2829,1.297,1.2976,1.2889,1.2969,1.2983,1.3015,1.3086,1.3096,1.3048,1.3048,1.3153,1.3164,1.3174,1.3245,1.3213,1.3218,1.3221,1.3392,1.3394,1.3395,0,0,0,0,0,0,1.2804,1.2821,1.2965,1.2903,1.2922,1.2974,1.301,1.3018,1.3043,1.3098,1.3107,1.3064,1.3152,1.3166,1.3228,1.3249,1.322,1.3225,1.3391,1.3393,1.3395,1.3387,0,0,0,0,0,0,1.2799,1.2819,1.2842,1.2903,1.2925,1.3017,1.3011,1.3021,1.3053,1.3054,1.3116,1.3125,1.3152,1.3219,1.3233,1.3256,1.323,1.3389,1.3392,1.3394,1.3385,1.3388,1.3391,0,0,0,0,0,1.2792,1.2836,1.2843,1.286,1.2955,1.3018,1.3031,1.3062,1.3054,1.3077,1.3112,1.3123,1.3244,1.3225,1.3242,1.3266,1.3388,1.3391,1.3394,1.3384,1.3388,1.339,0,0,0,0,0,0,1.2775,1.2844,1.2853,1.2918,1.2962,1.3023,1.3053,1.3065,1.3112,1.3111,1.3147,1.3161,1.322,1.325,1.3227,1.3325,1.3316,1.3322,1.3303,1.3307,1.3309,1.3301,1.3234,0,0,0,0,0,1.2779,1.2826,1.2883,1.2935,1.2957,1.3001,1.303,1.305,1.3097,1.3115,1.3155,1.32,1.3248,1.3279,1.3327,1.339,1.3403,1.3415,1.3417,1.3419,1.3424,1.3458,1.3463,1.3405,1.3405,1.3405,0,0,1.2788,1.2831,1.2858,1.2933,1.2969,1.3015,1.3016,1.3066,1.31,1.3123,1.3183,1.3213,1.3266,1.3328,1.3357,1.3354,1.3443,1.3423,1.3424,1.3428,1.3461,1.3467,1.3471,1.3407,1.3407,1.3406,0,0,1.2827,1.2865,1.2912,1.2948,1.3003,1.3032,1.3043,1.3101,1.3122,1.3183,1.32,1.3242,1.3325,1.3361,1.339,1.3441,1.3452,1.3456,1.347,1.3502,1.3506,1.3511,1.3527,1.3533,1.3461,1.3461,1.3461,0,1.2831,1.2902,1.2934,1.2982,1.3014,1.3036,1.3083,1.3117,1.3184,1.3205,1.3201,1.3304,1.3342,1.3411,1.3423,1.3447,1.346,1.3449,1.3503,1.3508,1.3512,1.3529,1.3535,1.3461,1.3461,1.3461,1.3461,0,1.2903,1.2952,1.2983,1.3047,1.3082,1.3129,1.3168,1.32,1.3216,1.3245,1.3306,1.3351,1.3407,1.3425,1.3443,1.3497,1.3494,1.3496,1.3488,1.3517,1.3533,1.354,1.3461,1.3461,1.3461,1.3461,0,0,1.2935,1.3016,1.3026,1.3055,1.3117,1.3155,1.3202,1.3257,1.3283,1.3328,1.3368,1.3437,1.3439,1.3472,1.3494,1.3522,1.3558,1.3521,1.3523,1.3525,1.3619,1.3616,1.3623,1.3566,1.3567,1.3568,1.3614,0,1.2981,1.3067,1.3097,1.3167,1.3212,1.3233,1.3275,1.3316,1.3344,1.3386,1.3417,1.3464,1.3464,1.3484,1.3513,1.3547,1.3577,1.3544,1.3602,1.3604,1.3587,1.3632,1.3629,1.367,1.3621,1.3622,1.3623,0,1.3046,1.3091,1.3166,1.3221,1.3241,1.3277,1.3329,1.3369,1.3416,1.3434,1.3471,1.3489,1.3539,1.3528,1.3597,1.3574,1.3599,1.3619,1.3622,1.3627,1.3614,1.3637,1.3684,1.369,1.3633,1.3632,1.3631,0,1.3059,1.314,1.3195,1.3219,1.3285,1.3309,1.3338,1.3384,1.3415,1.346,1.348,1.353,1.3557,1.3596,1.3627,1.3617,1.3692,1.3684,1.3708,1.3707,1.3722,1.3721,1.3773,1.374,1.374,1.374,1.374,0,1.3107,1.3151,1.3202,1.3236,1.3286,1.3319,1.3368,1.3398,1.3438,1.3478,1.3499,1.3536,1.3576,1.3617,1.3642,1.3694,1.3706,1.3722,1.3728,1.3719,1.3717,1.3736,1.3733,1.3742,1.3741,1.3741,1.3741,0,1.3131,1.3166,1.3227,1.3284,1.3299,1.3334,1.3382,1.3415,1.3443,1.3493,1.3506,1.3551,1.36,1.3636,1.37,1.3716,1.3772,1.3778,1.3755,1.3758,1.3779,1.3776,1.3844,1.3854,1.3816,1.3816,1.3816,0,1.3158,1.3192,1.3253,1.328,1.3308,1.3353,1.3384,1.3418,1.3449,1.3505,1.3531,1.3582,1.3624,1.3702,1.374,1.3789,1.3796,1.3816,1.3803,1.3793,1.3794,1.3791,1.3794,1.3818,1.3818,1.3818,1.3818,0,1.3202,1.3217,1.3261,1.3311,1.3347,1.3388,1.3429,1.345,1.3492,1.3525,1.3576,1.3609,1.3673,1.3723,1.3775,1.3804,1.3818,1.3822,1.383,1.3821,1.3806,1.3813,1.3759,1.382,1.382,1.382,1.382,1.382,1.3227,1.3258,1.3305,1.3353,1.3387,1.3425,1.3458,1.3491,1.3533,1.3589,1.3606,1.3658,1.3703,1.3774,1.3804,1.3844,1.3843,1.3855,1.3858,1.386,1.3859,1.38,1.3854,1.3854,1.3854,1.3854,1.3854,0,1.3271,1.3302,1.3345,1.3402,1.3439,1.3449,1.3495,1.3525,1.357,1.3611,1.3652,1.371,1.3758,1.3799,1.3848,1.3873,1.388,1.3885,1.3883,1.3889,1.3857,1.3845,1.3878,1.3878,1.3878,1.3878,1.3878,1.3878,1.3298,1.3351,1.3372,1.3442,1.3472,1.3523,1.3548,1.3583,1.3615,1.3678,1.3718,1.3745,1.3786,1.3838,1.3882,1.3893,1.391,1.3912,1.3924,1.3894,1.3891,1.3889,1.3877,1.3916,1.3916,1.3952,1.3953,1.3953]},{"header":{"parameterUnit":"m.s-1","parameterCategory":1,"la1":30.2991,"la2":30.254,"lo1":-89.0895,"lo2":-89.0444,"dy":0.0017,"dx":0.0017,"nx":28,"ny":28,"refTime":"2024-07-30T09:00:00:Z","depth":0,"parameterNumber":3,"parameterNumberName":"V-component_of_WINDS"},"data":[0,0,0,0,0,0,0,0,0,0,0,0,0,0,0,0,0,0,0,0,0,0,0,0,0,0,0,0,0,0,0,0,0,0,0,0,0,0,0,0,0,0,0,0,0,0,0,0,0,0,0,0,0,0,0,0,0,0,4.8051,4.8051,0,4.7999,4.7999,4.7998,4.7923,4.7922,4.792,4.7919,4.7866,4.7866,4.7866,0,0,0,0,0,0,0,0,0,0,0,0,0,4.8086,4.8085,4.8051,4.8051,4.805,4.8,4.7999,4.7998,4.7923,4.7922,4.792,4.7918,4.7866,4.7866,4.7866,0,0,0,0,0,0,0,0,0,0,0,0,0,4.8056,4.8085,4.8052,4.8007,4.8002,4.8,4.7999,4.7998,4.7923,4.7922,4.792,4.7918,4.7866,4.7866,4.7866,4.7903,0,0,4.7865,4.7865,0,0,0,0,0,0,0,0,4.8058,4.8055,4.8014,4.801,4.8005,4.7966,4.7991,4.7966,4.7924,4.7953,4.7919,4.7917,4.7901,4.7898,4.7892,4.7901,4.7898,4.7865,4.7865,4.7864,4.7864,0,0,0,0,0,0,0,4.806,4.8057,4.8031,4.8013,4.8008,4.7989,4.7983,4.7986,4.7939,4.7951,4.7945,4.794,4.7898,4.7893,4.789,4.7897,4.7865,4.7864,4.7864,4.7864,4.7932,4.7934,0,0,0,0,0,0,4.8069,4.8059,4.8032,4.8029,4.8027,4.799,4.7983,4.798,4.7938,4.793,4.7942,4.7937,4.7894,4.7891,4.7888,4.7928,4.7864,4.7864,4.7864,4.793,4.7933,4.7935,0,0,0,0,0,0,4.807,4.8067,4.8035,4.8042,4.8037,4.7991,4.7989,4.798,4.7975,4.7932,4.7923,4.7945,4.7892,4.7889,4.79,4.7925,4.7864,4.7864,4.7928,4.7931,4.7934,4.8009,0,0,0,0,0,0,4.8071,4.8068,4.8082,4.8043,4.8037,4.8047,4.7991,4.7981,4.7974,4.7967,4.7932,4.7925,4.7891,4.79,4.7899,4.7924,4.7864,4.7926,4.7929,4.7933,4.8004,4.8014,4.8023,0,0,0,0,0,4.8072,4.8105,4.8083,4.808,4.8053,4.8049,4.8045,4.8005,4.7977,4.799,4.7962,4.7926,4.7923,4.7902,4.79,4.7925,4.7924,4.7928,4.7933,4.8,4.8012,4.8023,0,0,0,0,0,0,4.8148,4.8099,4.8074,4.8095,4.8077,4.8036,4.8052,4.802,4.8009,4.8003,4.7953,4.7946,4.7963,4.7945,4.7923,4.7958,4.7918,4.7922,4.7969,4.7981,4.799,4.7993,4.7863,0,0,0,0,0,4.8167,4.8168,4.8125,4.8148,4.814,4.8098,4.8094,4.8065,4.8044,4.8036,4.8009,4.799,4.7984,4.7981,4.7974,4.8001,4.7992,4.8017,4.8027,4.8034,4.8039,4.805,4.8061,4.795,4.795,4.795,0,0,4.8206,4.818,4.8183,4.8162,4.8145,4.8146,4.8092,4.8096,4.8096,4.8036,4.8045,4.8024,4.8,4.8018,4.8025,4.8004,4.8067,4.804,4.8047,4.8046,4.8056,4.8066,4.8076,4.7953,4.7952,4.7952,0,0,4.8279,4.8259,4.8275,4.8259,4.8232,4.8204,4.8208,4.8172,4.8156,4.8164,4.8119,4.8119,4.811,4.8094,4.8085,4.8151,4.8116,4.815,4.8199,4.8211,4.8219,4.8227,4.8249,4.8258,4.8154,4.8154,4.8155,0,4.8331,4.8331,4.8288,4.8295,4.8286,4.8232,4.8248,4.8234,4.8207,4.8202,4.8179,4.8167,4.8146,4.816,4.8176,4.8171,4.8173,4.8153,4.8222,4.8229,4.8235,4.8256,4.8265,4.8159,4.8158,4.8158,4.8157,0,4.8396,4.8397,4.8414,4.8388,4.8382,4.8394,4.8352,4.8351,4.8322,4.8296,4.8304,4.8278,4.8263,4.8265,4.8237,4.8274,4.8261,4.8231,4.8189,4.8251,4.8269,4.8277,4.8165,4.8163,4.8162,4.8161,0,0,4.8514,4.8465,4.8471,4.8459,4.8425,4.8425,4.8434,4.842,4.8419,4.8403,4.8408,4.8402,4.8373,4.8363,4.8332,4.8343,4.8396,4.8311,4.8309,4.8326,4.8434,4.8456,4.8466,4.8373,4.8374,4.8375,4.8435,0,4.8579,4.8591,4.8552,4.8574,4.8574,4.8522,4.853,4.851,4.8486,4.8482,4.8455,4.8451,4.8414,4.8407,4.8416,4.8388,4.8416,4.8383,4.8377,4.8377,4.8384,4.8476,4.8501,4.8559,4.8442,4.8444,4.8445,0,4.8656,4.8643,4.8665,4.8629,4.8628,4.8635,4.8619,4.8616,4.8593,4.8574,4.8563,4.8528,4.8533,4.8494,4.85,4.8478,4.8473,4.8459,4.846,4.8457,4.8414,4.8475,4.8576,4.8585,4.8456,4.8455,4.8454,0,4.8738,4.8726,4.8737,4.8728,4.8688,4.8694,4.8678,4.8652,4.8646,4.8632,4.8627,4.8614,4.8606,4.8597,4.8559,4.8534,4.8569,4.8527,4.8553,4.8554,4.8562,4.8562,4.8663,4.8561,4.8561,4.8561,4.8561,0,4.8814,4.8829,4.8773,4.878,4.8795,4.8751,4.8767,4.8745,4.8723,4.8724,4.8679,4.8681,4.8631,4.8628,4.8598,4.8607,4.8604,4.8589,4.8581,4.8593,4.8594,4.8588,4.8583,4.8563,4.8563,4.8562,4.8562,0,4.8908,4.8872,4.888,4.8841,4.8832,4.8845,4.8811,4.8816,4.8789,4.8791,4.8789,4.8747,4.874,4.8701,4.8686,4.8666,4.8685,4.8669,4.8693,4.8687,4.8716,4.8713,4.8815,4.8826,4.8719,4.872,4.8721,0,4.8959,4.8969,4.8931,4.8929,4.8914,4.8911,4.8905,4.8861,4.8856,4.883,4.8837,4.8827,4.8816,4.8808,4.8775,4.8763,4.8746,4.8782,4.8744,4.8755,4.8745,4.8745,4.8745,4.8791,4.8792,4.8793,4.8794,0,4.9051,4.9033,4.9025,4.9011,4.9005,4.8991,4.8975,4.8976,4.8928,4.8924,4.8917,4.8909,4.8893,4.8883,4.8865,4.8847,4.8812,4.8807,4.8812,4.8824,4.8837,4.8829,4.8715,4.8804,4.8803,4.8803,4.8802,4.8802,4.9124,4.913,4.9105,4.9098,4.9081,4.9067,4.9069,4.9043,4.9036,4.902,4.8994,4.899,4.8966,4.8938,4.8923,4.8918,4.8899,4.8907,4.8908,4.8911,4.8917,4.8838,4.8915,4.8915,4.8914,4.8914,4.8914,0,4.9213,4.9195,4.9188,4.9168,4.9162,4.913,4.9111,4.9108,4.9105,4.9085,4.9076,4.9067,4.9057,4.9024,4.901,4.9013,4.8997,4.9011,4.901,4.9006,4.8936,4.8932,4.9024,4.9024,4.9024,4.9024,4.9024,4.9024,4.9259,4.9268,4.9247,4.9247,4.9227,4.9223,4.9215,4.9202,4.9185,4.9178,4.9169,4.9148,4.9122,4.9106,4.9095,4.9086,4.9082,4.9102,4.9087,4.9022,4.9011,4.9001,4.8997,4.9101,4.9102,4.9157,4.9158,4.9158]}]]